[Date Prev][Date Next][Thread Prev][Thread Next] - [Date Index][Thread Index][Author Index]
2 Line ISS Keps 4-28 - update 19 sec's frm Yesterday
- Subject: [sarex] 2 Line ISS Keps 4-28 - update 19 sec's frm Yesterday
- From: "Dr Dave Larsen [ PhD ]" <doc@xxxxxxxxxxx>
- Date: Sat, 28 Apr 2001 14:12:33 -0700
ISS
1 25544U 98067A 01118.87259259 .00072405 00000-0 93035-3 0 9124
2 25544 51.5740 337.1817 0016632 350.5422 202.5433 15.58272240139371
----
Via the sarex mailing list at AMSAT.ORG courtesy of AMSAT-NA.
To unsubscribe, send "unsubscribe sarex" to Majordomo@amsat.org
AMSAT Home